User: anonymous   Login
Location: Bijele Vode
(45.2833°N, 16.2000°E)
Time: 19:28:12
(UTC+00:00)
Language:

RS-44 - Orbit

View from above orbital plane
View from above orbital plane
View from above satellite
View from above satellite

Ground track
Ground track

The orbit data is extracted from the following two-line orbital elements,

1 44909U 19096E   21340.78505414  .00000006  00000-0 -25037-4 0  9993
2 44909  82.5215 358.3052 0218268  50.4230 311.5926 12.79711401 90861
Epoch (UTC): 06 December 2021 18:50:28
Eccentricity: 0.0218268
inclination: 82.5215°
perigee height: 1174 km
apogee height: 1511 km
right ascension of ascending node: 358.3052°
argument of perigee: 50.4230°
revolutions per day: 12.79711401
mean anomaly at epoch: 311.5926°
orbit number at epoch: 9086

The dashed part of the orbit path shows where the satellite is in the earth's shadow,  

DLR